Location: Unspecified
(35.6961°N, 0.0000°E)
Time: 03:30:01
(UTC+00:00)

Courier 1B Rocket - Pass Details

Date: 26 May 2019
Orbit: 920 x 1202 km, 28.2° (Epoch: 24 June)

Event Time Altitude Azimuth Distance (km) Brightness Sun altitude
Rises 19:50:56 0° 268° (W) 4,096 9.2 -8.6°
Reaches altitude 10° 19:54:15 10° 257° (WSW) 3,124 8.3 -9.2°
Maximum altitude 20:00:36 28° 202° (SSW) 2,049 6.6 -10.2°
Enters shadow 20:06:27 11° 149° (SSE) 2,939 6.9 -11.2°
